Location: Stoke Bliss
(52.2667°N, 2.5167°W)
Time: 14:33:21
(UTC+00:00)

USA 281 - Pass Details

Date: 03 March 2021
Orbit: 1076 x 1083 km, 106.0° (Epoch: 03 April)

Event Time Altitude Azimuth Distance (km) Brightness Sun altitude
Exits shadow 21:34:29 48° 25° (NNE) 1,389 3.7 -32.8°
Drops below altitude 10° 21:39:52 10° 338° (NNW) 2,929 6.1 -33.5°
Sets 21:42:27 0° 334° (NNW) 3,889 7.0 -33.8°
